2018-112D (43912 NORAD) Tracking and Keplerian Element Data

This shows tracking and keplerian element data for the satellite.

Feedback or suggestion? Click here.




ElementValue
Catalog43912
Name2018-112D
Epoch Orbit248
Epoch Day16.80394914
Epoch Year2019
RAAN117.3001
Inclination50.01
Eccentricity0.0006384
Argument of Perigee316.5202
Mean Anonmoly43.5177
Mean Motion13.44337696
Decay Rate-1.04E-06
L11 43912U 18112D 19016.80394914 -.00000104 00000-0 43668-4 0 9994
L22 43912 50.0100 117.3001 0006384 316.5202 43.5177 13.44337696 2487

Live tracking and technical data element details for 2018-112D (NORAD 43912). 2018-112D can be tracked NOW for your location showing map with azimuth and elevation plus other details from your city location.

Track the satellite on the map from your city or location and see movement details for azimuth, elevation, latitude, longitude, range, height, and movement on the map or in text.







IsCatalogInMostPopularTable: catalog: 43912, numindb: 10
Update: records affected: 1



GetName: 43912 2018-112D

Hit Count: updated at: Thu, 17 Jan 2019 15:20:48 GMT